Aeroporto :
LOGIN :

Iscrizione | Disclaimer

   EN    FR    IT 

 










Sommario :    VFR   VFR Marginale   IFR   IFR Intensivo   IFR Molto Intensivo
Visibilità : 
Base nubi : 
>= 8 km
>= 3000ft
5 / 8 km
1000 / 3000 ft
1500m / 5 km
500 / 1000 ft
800 / 1500m
200 / 500 ft
< 800m
< 200 ft
Simboli :   Temporali  Nebbia  Neve Forte  Precipitazioni Forti  Vento > 20 kt
SIGMETs :   Varie  Temporali  Ghiacco  Turbolenza  Onda orograficha  Ceneri Vulcaniche







- Altitudine del aeroporto : 41 ft


LIRE - Pratica di Mare Air Base Pomezia

ULTIMO METAR :
  • 141555Z 31004KT CAVOK 17/16 Q1024 RMK SCT SCT220 VIS MIN 9999 WIND THR13 33003KT WIND THR31 /////KT BLU

METARs OBSOLETI :
  • 141455Z 28005KT CAVOK 18/13 Q1024 RMK SCT SCT220 VIS MIN 9999 WIND THR13 30004KT WIND THR31 /////KT BLU
  • 141355Z 31005KT CAVOK 18/12 Q1024 RMK SCT SCT220 VIS MIN 9999 WIND THR13 30005KT WIND THR31 /////KT BLU

TAF TAF LIRE
Valido dal 14 a 15 ore il 15 a 00 ore UTC


141400Z 1415/1424 04006KT CAVOK
Nessun NOTAM noto per questo aeroporto.



MetMap, La meteo Aeronautica in un colpo d'occhio ! - Copyright ORBIFLY Dicembre 2007 - Disclaimer

ORBIFLY MET'MAP TEAM :

Programmazione e sviluppo : Alexandra Zaïnal
Concezione e sviluppo : Baudouin d'Aumeries
Co-Programmazione e sviluppo : Marc-Olivier Méhu
Supporto tecnico e logistico : Manuel Goepfert
Aiuto per la traduzione : Arnaldo La Scala

Contatto : metmap@orbifly.com




FONTI E CREDITI :

   NOAA